,,,PA_Meas_PMT16A,,PR_Meas_QMR101_102,,RH_Meas_QMH101,,SR_Meas_QMS101,,TA_Meas_QMH101,,GenWind,,GenWind,
date,time,status,PA,status,PR,status,RH,status,SR,status,TA,status,DirAvg,status,SpdAvg,
2014-11-17, 00:00:05,VALID,1008.53,VALID,0,INVALID,111.26,VALID,0,VALID,24.2183,VALID,57,VALID,0.155078,
2014-11-17, 00:01:05,VALID,1008.49,VALID,0,INVALID,112.472,VALID,0,VALID,24.2396,VALID,57,VALID,0.421484,
2014-11-17, 00:02:05,VALID,1008.5,VALID,0,INVALID,113.57,VALID,0,VALID,24.2183,VALID,57,VALID,0.496094,
2014-11-17, 00:03:05,VALID,1008.49,VALID,0,INVALID,115.561,VALID,0,VALID,24.2396,VALID,57,VALID,0.571484,
2014-11-17, 00:04:05,VALID,1008.5,VALID,0,INVALID,117.597,VALID,0,VALID,24.2183,VALID,57,VALID,0.480078,
2014-11-17, 00:05:05,VALID,1008.5,VALID,0,INVALID,120.449,VALID,0.112112,VALID,24.2183,VALID,57,VALID,0.887109,
2014-11-17, 00:06:05,VALID,1008.49,VALID,0,INVALID,120.167,VALID,0,VALID,24.2183,VALID,57,VALID,0.845703,
2014-11-17, 00:07:05,VALID,1008.5,VALID,0,INVALID,120.357,VALID,0,VALID,24.2202,VALID,57,VALID,1.15313,
2014-11-17, 00:08:05,VALID,1008.51,VALID,0,INVALID,120.723,VALID,0.112112,VALID,24.1988,VALID,57,VALID,0.754687,
2014-11-17, 00:09:05,VALID,1008.5,VALID,0,INVALID,120.083,VALID,0.112112,VALID,24.1793,VALID,57,VALID,1.16836,
2014-11-17, 00:10:05,VALID,1008.47,VALID,0,INVALID,119.389,VALID,0.112112,VALID,24.1793,VALID,57,VALID,1.3207,
2014-11-17, 00:11:05,VALID,1008.5,VALID,0,INVALID,119.732,VALID,0.112112,VALID,24.1793,VALID,57,VALID,1.30156,
2014-11-17, 00:12:05,VALID,1008.5,VALID,0,INVALID,120.472,VALID,0.112112,VALID,24.1599,VALID,57,VALID,1.1543,
2014-11-17, 00:13:05,VALID,1008.48,VALID,0,INVALID,121.288,VALID,0.112112,VALID,24.1812,VALID,57,VALID,0.933203,
2014-11-17, 00:14:05,VALID,1008.46,VALID,0,INVALID,121.494,VALID,0,VALID,24.1793,VALID,57,VALID,1.1332,
2014-11-17, 00:15:05,VALID,1008.47,VALID,0,INVALID,121.982,VALID,0,VALID,24.1793,VALID,57,VALID,1.51055,
2014-11-17, 00:16:05,VALID,1008.47,VALID,0,INVALID,122.714,VALID,0,VALID,24.1793,VALID,57,VALID,0.858203,
2014-11-17, 00:17:05,VALID,1008.43,VALID,0,INVALID,123.209,VALID,0,VALID,24.1812,VALID,57,VALID,0.709375,
2014-11-17, 00:18:05,VALID,1008.43,VALID,0,INVALID,124.163,VALID,0,VALID,24.1599,VALID,57,VALID,0.857031,
2014-11-17, 00:19:05,VALID,1008.42,VALID,0,INVALID,125.23,VALID,0,VALID,24.1793,VALID,57,VALID,0.636719,
2014-11-17, 00:20:05,VALID,1008.41,VALID,0,INVALID,125.23,VALID,0,VALID,24.1404,VALID,93,VALID,1.2,
2014-11-17, 00:21:05,VALID,1008.4,VALID,0,INVALID,125.627,VALID,0.112112,VALID,24.1404,VALID,83,VALID,0.84375,
2014-11-17, 00:22:05,VALID,1008.38,VALID,0,INVALID,125.909,VALID,0,VALID,24.1617,VALID,78,VALID,0.85625,
2014-11-17, 00:23:05,VALID,1008.36,VALID,0,INVALID,126.412,VALID,0.112112,VALID,24.1404,VALID,71,VALID,0.935938,
2014-11-17, 00:24:05,VALID,1008.35,VALID,0,INVALID,126.824,VALID,0.112112,VALID,24.1404,VALID,71,VALID,1.00703,
2014-11-17, 00:25:05,VALID,1008.33,VALID,0,INVALID,126.74,VALID,0.112112,VALID,24.1209,VALID,71,VALID,1.27539,
2014-11-17, 00:26:05,VALID,1008.31,VALID,0,INVALID,127.167,VALID,0.112112,VALID,24.1209,VALID,71,VALID,0.784375,
2014-11-17, 00:27:05,VALID,1008.31,VALID,0,INVALID,127.686,VALID,0.112112,VALID,24.1209,VALID,71,VALID,0.83125,
2014-11-17, 00:28:05,VALID,1008.31,VALID,0,INVALID,127.853,VALID,0.112112,VALID,24.1014,VALID,71,VALID,0.840625,
2014-11-17, 00:29:05,VALID,1008.3,VALID,0,INVALID,128.951,VALID,0,VALID,24.1032,VALID,71,VALID,0.829687,
2014-11-17, 00:30:05,VALID,1008.29,VALID,0,INVALID,129.005,VALID,0,VALID,24.0837,VALID,71,VALID,0.994531,
2014-11-17, 00:31:05,VALID,1008.28,VALID,0,INVALID,129.455,VALID,0,VALID,24.0837,VALID,71,VALID,0.495313,
2014-11-17, 00:32:05,VALID,1008.26,VALID,0,INVALID,129.47,VALID,0,VALID,24.0643,VALID,63,VALID,1.04102,
2014-11-17, 00:33:05,VALID,1008.26,VALID,0,INVALID,130.019,VALID,0,VALID,24.0643,VALID,52,VALID,0.331641,
2014-11-17, 00:34:05,VALID,1008.23,VALID,0,INVALID,130.4,VALID,0,VALID,24.0448,VALID,52,VALID,0.967969,
2014-11-17, 00:35:05,VALID,1008.24,VALID,0,INVALID,130.873,VALID,0,VALID,24.0448,VALID,52,VALID,0.630859,
2014-11-17, 00:36:05,VALID,1008.21,VALID,0,INVALID,130.949,VALID,0,VALID,24.0253,VALID,52,VALID,0.85,
2014-11-17, 00:37:05,VALID,1008.22,VALID,0,INVALID,131.559,VALID,0,VALID,24.0448,VALID,52,VALID,0.299219,
2014-11-17, 00:38:05,VALID,1008.21,VALID,0,INVALID,132.223,VALID,0,VALID,24.0253,VALID,52,VALID,0.344531,
2014-11-17, 00:39:05,VALID,1008.2,VALID,0,INVALID,132.566,VALID,0,VALID,24.0253,VALID,52,VALID,0.898828,
2014-11-17, 00:40:05,VALID,1008.2,VALID,0,INVALID,132.94,VALID,0,VALID,24.0253,VALID,52,VALID,0.443359,
2014-11-17, 00:41:05,VALID,1008.18,VALID,0,INVALID,133.336,VALID,0,VALID,24.0253,VALID,52,VALID,0.402734,
2014-11-17, 00:42:05,VALID,1008.17,VALID,0,INVALID,133.527,VALID,0,VALID,24.0253,VALID,52,VALID,0,
2014-11-17, 00:43:05,VALID,1008.13,VALID,0,INVALID,133.801,VALID,0,VALID,24.0253,VALID,52,VALID,0,
2014-11-17, 00:44:05,VALID,1008.13,VALID,0,INVALID,134.389,VALID,0,VALID,24.0253,VALID,52,VALID,0.383203,
2014-11-17, 00:45:05,VALID,1008.12,VALID,0,INVALID,134.877,VALID,0,VALID,24.0058,VALID,52,VALID,0.536328,
2014-11-17, 00:46:05,VALID,1008.13,VALID,0,INVALID,135.182,VALID,0,VALID,24.0253,VALID,52,VALID,0.448828,
2014-11-17, 00:47:05,VALID,1008.1,VALID,0,INVALID,135.441,VALID,0,VALID,24.0466,VALID,52,VALID,0.20625,
2014-11-17, 00:48:05,VALID,1008.1,VALID,0,INVALID,135.67,VALID,0,VALID,24.0253,VALID,52,VALID,0.0308594,
2014-11-17, 00:49:05,VALID,1008.12,VALID,0,INVALID,135.807,VALID,0,VALID,24.0448,VALID,52,VALID,0.332422,
2014-11-17, 00:50:05,VALID,1008.13,VALID,0,INVALID,136.021,VALID,0,VALID,24.0448,VALID,52,VALID,0.231641,
2014-11-17, 00:51:05,VALID,1008.11,VALID,0,INVALID,135.868,VALID,0,VALID,24.0448,VALID,52,VALID,0.567187,
2014-11-17, 00:52:05,VALID,1008.13,VALID,0,INVALID,135.921,VALID,0,VALID,24.0643,VALID,52,VALID,0.621094,
2014-11-17, 00:53:05,VALID,1008.08,VALID,0,INVALID,135.639,VALID,0,VALID,24.0837,VALID,52,VALID,0.557031,
2014-11-17, 00:54:05,VALID,1008.1,VALID,0,INVALID,135.441,VALID,0,VALID,24.0643,VALID,52,VALID,0.390234,
2014-11-17, 00:55:05,VALID,1008.03,VALID,0,INVALID,134.976,VALID,0,VALID,24.0856,VALID,52,VALID,0.382813,
2014-11-17, 00:56:05,VALID,1008.05,VALID,0,INVALID,134.869,VALID,0.112112,VALID,24.0837,VALID,52,VALID,0,
2014-11-17, 00:57:05,VALID,1008.02,VALID,0,INVALID,134.45,VALID,0,VALID,24.0837,VALID,52,VALID,0.274609,
2014-11-17, 00:58:05,VALID,1008.02,VALID,0,INVALID,134.366,VALID,0,VALID,24.0643,VALID,52,VALID,0.569922,
2014-11-17, 00:59:05,VALID,1007.99,VALID,0,INVALID,134.419,VALID,0,VALID,24.0448,VALID,52,VALID,0.480469,
2014-11-17, 01:00:05,VALID,1007.99,VALID,0,INVALID,134.556,VALID,0,VALID,24.0643,VALID,52,VALID,0.315625,
2014-11-17, 01:01:05,VALID,1007.97,VALID,0,INVALID,134.64,VALID,0,VALID,24.0643,VALID,52,VALID,0.0605469,
2014-11-17, 01:02:05,VALID,1007.94,VALID,0,INVALID,134.488,VALID,0,VALID,24.0448,VALID,52,VALID,0.833984,
2014-11-17, 01:03:05,VALID,1007.91,VALID,0,INVALID,134.434,VALID,0,VALID,24.0448,VALID,52,VALID,0.622656,
2014-11-17, 01:04:05,VALID,1007.88,VALID,0,INVALID,134.351,VALID,0,VALID,24.0661,VALID,52,VALID,0.525,
2014-11-17, 01:05:05,VALID,1007.89,VALID,0,INVALID,134.366,VALID,0,VALID,24.0448,VALID,52,VALID,0.592188,
2014-11-17, 01:06:05,VALID,1007.83,VALID,0,INVALID,134.312,VALID,0,VALID,24.0661,VALID,52,VALID,0.282031,
2014-11-17, 01:07:05,VALID,1007.85,VALID,0,INVALID,134.29,VALID,0,VALID,24.0448,VALID,52,VALID,0.0535156,
2014-11-17, 01:08:05,VALID,1007.8,VALID,0,INVALID,134.206,VALID,0,VALID,24.0661,VALID,52,VALID,0.306641,
2014-11-17, 01:09:05,VALID,1007.77,VALID,0,INVALID,134.229,VALID,0,VALID,24.0448,VALID,52,VALID,0.218359,
2014-11-17, 01:10:05,VALID,1007.74,VALID,0,INVALID,134.107,VALID,0,VALID,24.0253,VALID,52,VALID,0.410547,
2014-11-17, 01:11:05,VALID,1007.72,VALID,0,INVALID,133.801,VALID,0,VALID,24.0058,VALID,52,VALID,0.596484,
2014-11-17, 01:12:05,VALID,1007.7,VALID,0,INVALID,134.091,VALID,0,VALID,24.0058,VALID,52,VALID,0.344141,
2014-11-17, 01:13:05,VALID,1007.68,VALID,0,INVALID,134.335,VALID,0,VALID,24.0058,VALID,52,VALID,0,
2014-11-17, 01:14:05,VALID,1007.63,VALID,0,INVALID,134.343,VALID,0,VALID,24.0058,VALID,52,VALID,0.178906,
2014-11-17, 01:15:05,VALID,1007.66,VALID,0,INVALID,134.473,VALID,0,VALID,23.965,VALID,52,VALID,0.09375,
2014-11-17, 01:16:05,VALID,1007.63,VALID,0,INVALID,134.656,VALID,0,VALID,24.0058,VALID,52,VALID,0,
2014-11-17, 01:17:05,VALID,1007.63,VALID,0,INVALID,134.854,VALID,0,VALID,23.9845,VALID,52,VALID,0,
2014-11-17, 01:18:05,VALID,1007.61,VALID,0,INVALID,134.945,VALID,0,VALID,23.965,VALID,52,VALID,0.128125,
2014-11-17, 01:19:05,VALID,1007.59,VALID,0,INVALID,134.861,VALID,0,VALID,23.9863,VALID,52,VALID,0.198828,
2014-11-17, 01:20:05,VALID,1007.62,VALID,0,INVALID,134.892,VALID,0,VALID,23.9668,VALID,52,VALID,0.00117188,
2014-11-17, 01:21:05,VALID,1007.62,VALID,0,INVALID,135.144,VALID,0,VALID,23.9473,VALID,52,VALID,0.0785156,
2014-11-17, 01:22:05,VALID,1007.6,VALID,0,INVALID,135.09,VALID,0,VALID,23.9668,VALID,52,VALID,0,
2014-11-17, 01:23:05,VALID,1007.59,VALID,0,INVALID,135.159,VALID,0,VALID,23.926,VALID,52,VALID,0,
2014-11-17, 01:24:05,VALID,1007.6,VALID,0,INVALID,135.166,VALID,0,VALID,23.9668,VALID,52,VALID,0.121484,
2014-11-17, 01:25:05,VALID,1007.57,VALID,0,INVALID,135.25,VALID,0,VALID,23.9278,VALID,52,VALID,0,
2014-11-17, 01:26:05,VALID,1007.57,VALID,0,INVALID,135.319,VALID,0,VALID,23.9278,VALID,52,VALID,0,
2014-11-17, 01:27:05,VALID,1007.57,VALID,0,INVALID,135.525,VALID,0,VALID,23.9473,VALID,52,VALID,0,
2014-11-17, 01:28:05,VALID,1007.55,VALID,0,INVALID,135.578,VALID,0,VALID,23.9863,VALID,52,VALID,0,
2014-11-17, 01:29:05,VALID,1007.58,VALID,0,INVALID,135.548,VALID,0,VALID,23.9863,VALID,52,VALID,0,
2014-11-17, 01:30:05,VALID,1007.56,VALID,0,INVALID,135.586,VALID,0,VALID,23.9668,VALID,52,VALID,0,
2014-11-17, 01:31:05,VALID,1007.55,VALID,0,INVALID,135.647,VALID,0,VALID,23.9668,VALID,52,VALID,0,
2014-11-17, 01:32:05,VALID,1007.54,VALID,0,INVALID,135.754,VALID,0,VALID,23.9668,VALID,52,VALID,0,
2014-11-17, 01:33:05,VALID,1007.54,VALID,0,INVALID,135.708,VALID,0,VALID,23.9863,VALID,52,VALID,0.00507812,
2014-11-17, 01:34:05,VALID,1007.52,VALID,0,INVALID,135.731,VALID,0,VALID,23.9863,VALID,52,VALID,0,
2014-11-17, 01:35:05,VALID,1007.51,VALID,0,INVALID,135.777,VALID,0,VALID,23.965,VALID,52,VALID,0,
2014-11-17, 01:36:05,VALID,1007.48,VALID,0,INVALID,135.769,VALID,0,VALID,24.0058,VALID,52,VALID,0.427344,
2014-11-17, 01:37:05,VALID,1007.47,VALID,0,INVALID,135.899,VALID,0,VALID,23.9845,VALID,52,VALID,0.232812,
2014-11-17, 01:38:05,VALID,1007.44,VALID,0,INVALID,135.921,VALID,0,VALID,24.0058,VALID,52,VALID,0.329688,
2014-11-17, 01:39:05,VALID,1007.44,VALID,0,INVALID,135.982,VALID,0,VALID,23.9845,VALID,52,VALID,0.442187,
2014-11-17, 01:40:05,VALID,1007.43,VALID,0,INVALID,136.127,VALID,0,VALID,24.0058,VALID,52,VALID,0.567578,
2014-11-17, 01:41:05,VALID,1007.4,VALID,0,INVALID,136.12,VALID,0,VALID,24.0058,VALID,52,VALID,0.479297,
2014-11-17, 01:42:05,VALID,1007.4,VALID,0,INVALID,136.333,VALID,0,VALID,24.0058,VALID,52,VALID,0.558984,
2014-11-17, 01:43:05,VALID,1007.38,VALID,0,INVALID,136.57,VALID,0,VALID,23.9863,VALID,52,VALID,0.448047,
2014-11-17, 01:44:05,VALID,1007.38,VALID,0,INVALID,136.654,VALID,0.112112,VALID,23.9845,VALID,52,VALID,0.300781,
2014-11-17, 01:45:05,VALID,1007.4,VALID,0,INVALID,136.623,VALID,0.112112,VALID,24.004,VALID,52,VALID,0.296875,
2014-11-17, 01:46:05,VALID,1007.38,VALID,0,INVALID,136.615,VALID,0.112112,VALID,24.004,VALID,52,VALID,0.433594,
2014-11-17, 01:47:05,VALID,1007.41,VALID,0,INVALID,136.654,VALID,0.112112,VALID,23.9845,VALID,52,VALID,0.495313,
2014-11-17, 01:48:05,VALID,1007.39,VALID,0,INVALID,136.715,VALID,0.112112,VALID,23.9845,VALID,52,VALID,0.273438,
2014-11-17, 01:49:05,VALID,1007.4,VALID,0,INVALID,136.806,VALID,0.112112,VALID,23.9845,VALID,52,VALID,0.383594,
2014-11-17, 01:50:05,VALID,1007.39,VALID,0,INVALID,136.829,VALID,0.112112,VALID,23.965,VALID,52,VALID,0.596094,
2014-11-17, 01:51:05,VALID,1007.39,VALID,0,INVALID,136.898,VALID,0.112112,VALID,23.9845,VALID,52,VALID,0.646484,
2014-11-17, 01:52:05,VALID,1007.41,VALID,0,INVALID,136.928,VALID,0.112112,VALID,23.965,VALID,52,VALID,0.550781,
2014-11-17, 01:53:05,VALID,1007.4,VALID,0,INVALID,136.997,VALID,0.112112,VALID,23.965,VALID,52,VALID,0.450781,
2014-11-17, 01:54:05,VALID,1007.4,VALID,0,INVALID,137.058,VALID,0.112112,VALID,23.965,VALID,52,VALID,0.257031,
2014-11-17, 01:55:05,VALID,1007.41,VALID,0,INVALID,137.035,VALID,0.112112,VALID,23.965,VALID,52,VALID,0.177734,
2014-11-17, 01:56:05,VALID,1007.41,VALID,0,INVALID,137.042,VALID,0.112112,VALID,23.965,VALID,52,VALID,0.217969,
2014-11-17, 01:57:05,VALID,1007.41,VALID,0,INVALID,137.187,VALID,0.112112,VALID,23.965,VALID,52,VALID,0.157031,
2014-11-17, 01:58:05,VALID,1007.41,VALID,0,INVALID,137.294,VALID,0.112112,VALID,23.965,VALID,52,VALID,0.401172,
2014-11-17, 01:59:05,VALID,1007.42,VALID,0,INVALID,137.286,VALID,0,VALID,23.926,VALID,52,VALID,0.255859,
2014-11-17, 02:00:05,VALID,1007.41,VALID,0,INVALID,137.431,VALID,0,VALID,23.9473,VALID,52,VALID,0,
2014-11-17, 02:01:05,VALID,1007.41,VALID,0,INVALID,137.782,VALID,0,VALID,23.9473,VALID,52,VALID,0.344141,
2014-11-17, 02:02:05,VALID,1007.45,VALID,0,INVALID,137.82,VALID,0,VALID,23.9473,VALID,52,VALID,0.408203,
2014-11-17, 02:03:05,VALID,1007.45,VALID,0,INVALID,137.889,VALID,0,VALID,23.9473,VALID,52,VALID,0.317187,
2014-11-17, 02:04:05,VALID,1007.45,VALID,0,INVALID,137.896,VALID,0,VALID,23.9668,VALID,52,VALID,0,
2014-11-17, 02:05:05,VALID,1007.48,VALID,0,INVALID,137.851,VALID,0,VALID,23.9863,VALID,52,VALID,0,
2014-11-17, 02:06:05,VALID,1007.49,VALID,0,INVALID,137.736,VALID,0,VALID,24.0058,VALID,52,VALID,0,
2014-11-17, 02:07:05,VALID,1007.5,VALID,0,INVALID,137.713,VALID,0,VALID,24.0058,VALID,52,VALID,0,
2014-11-17, 02:08:05,VALID,1007.5,VALID,0,INVALID,137.774,VALID,0,VALID,23.9863,VALID,52,VALID,0,
2014-11-17, 02:09:05,VALID,1007.51,VALID,0,INVALID,137.82,VALID,0,VALID,23.965,VALID,52,VALID,0,
2014-11-17, 02:10:05,VALID,1007.51,VALID,0,INVALID,137.858,VALID,0,VALID,23.9668,VALID,52,VALID,0,
2014-11-17, 02:11:05,VALID,1007.54,VALID,0,INVALID,137.858,VALID,0,VALID,23.9668,VALID,52,VALID,0,
2014-11-17, 02:12:05,VALID,1007.52,VALID,0,INVALID,137.958,VALID,0,VALID,23.9668,VALID,52,VALID,0,
2014-11-17, 02:13:05,VALID,1007.51,VALID,0,INVALID,137.965,VALID,0,VALID,23.9278,VALID,52,VALID,0,
2014-11-17, 02:14:05,VALID,1007.52,VALID,0,INVALID,138.019,VALID,0,VALID,23.9278,VALID,52,VALID,0,
2014-11-17, 02:15:05,VALID,1007.51,VALID,0,INVALID,138.072,VALID,0,VALID,23.9084,VALID,52,VALID,0,
2014-11-17, 02:16:05,VALID,1007.49,VALID,0,INVALID,138.186,VALID,0,VALID,23.8889,VALID,52,VALID,0,
2014-11-17, 02:17:05,VALID,1007.48,VALID,0,INVALID,138.194,VALID,0,VALID,23.8499,VALID,52,VALID,0,
2014-11-17, 02:18:05,VALID,1007.47,VALID,0,INVALID,138.179,VALID,0,VALID,23.8694,VALID,52,VALID,0,
2014-11-17, 02:19:05,VALID,1007.44,VALID,0,INVALID,138.141,VALID,0,VALID,23.8694,VALID,52,VALID,0,
2014-11-17, 02:20:05,VALID,1007.42,VALID,0,INVALID,138.095,VALID,0,VALID,23.8286,VALID,52,VALID,0,
2014-11-17, 02:21:05,VALID,1007.42,VALID,0,INVALID,138.08,VALID,0,VALID,23.8712,VALID,52,VALID,0,
2014-11-17, 02:22:05,VALID,1007.41,VALID,0,INVALID,137.996,VALID,0,VALID,23.8499,VALID,52,VALID,0,
2014-11-17, 02:23:05,VALID,1007.39,VALID,0,INVALID,137.889,VALID,0,VALID,23.8481,VALID,52,VALID,0,
2014-11-17, 02:24:05,VALID,1007.39,VALID,0,INVALID,137.759,VALID,0,VALID,23.8889,VALID,52,VALID,0,
2014-11-17, 02:25:05,VALID,1007.43,VALID,0,INVALID,137.63,VALID,0,VALID,23.8871,VALID,52,VALID,0,
2014-11-17, 02:26:05,VALID,1007.43,VALID,0,INVALID,137.553,VALID,0,VALID,23.8889,VALID,52,VALID,0,
2014-11-17, 02:27:05,VALID,1007.43,VALID,0,INVALID,137.523,VALID,0,VALID,23.9084,VALID,52,VALID,0,
2014-11-17, 02:28:05,VALID,1007.42,VALID,0,INVALID,137.5,VALID,0,VALID,23.9102,VALID,52,VALID,0,
2014-11-17, 02:29:05,VALID,1007.43,VALID,0,INVALID,137.508,VALID,0,VALID,23.9297,VALID,52,VALID,0,
2014-11-17, 02:30:05,VALID,1007.43,VALID,0,INVALID,137.469,VALID,0,VALID,23.9084,VALID,52,VALID,0,
2014-11-17, 02:31:04,VALID,1007.4,VALID,0,INVALID,137.393,VALID,0,VALID,23.9278,VALID,52,VALID,0,
2014-11-17, 02:32:04,VALID,1007.41,VALID,0,INVALID,137.401,VALID,0,VALID,23.9473,VALID,52,VALID,0,
2014-11-17, 02:33:04,VALID,1007.39,VALID,0,INVALID,137.393,VALID,0,VALID,23.9473,VALID,52,VALID,0,
2014-11-17, 02:34:04,VALID,1007.39,VALID,0,INVALID,137.416,VALID,0,VALID,23.9455,VALID,52,VALID,0,
2014-11-17, 02:35:04,VALID,1007.36,VALID,0,INVALID,137.492,VALID,0,VALID,23.9668,VALID,52,VALID,0,
2014-11-17, 02:36:04,VALID,1007.36,VALID,0,INVALID,137.515,VALID,0,VALID,23.9863,VALID,52,VALID,0,
2014-11-17, 02:37:04,VALID,1007.35,VALID,0,INVALID,137.546,VALID,0,VALID,23.9863,VALID,52,VALID,0,
2014-11-17, 02:38:04,VALID,1007.37,VALID,0,INVALID,137.675,VALID,0,VALID,23.9863,VALID,52,VALID,0,
2014-11-17, 02:39:04,VALID,1007.33,VALID,0,INVALID,137.721,VALID,0,VALID,23.9863,VALID,52,VALID,0,
2014-11-17, 02:40:04,VALID,1007.36,VALID,0,INVALID,137.774,VALID,0,VALID,23.9863,VALID,52,VALID,0,
2014-11-17, 02:41:04,VALID,1007.36,VALID,0,INVALID,137.858,VALID,0,VALID,23.9863,VALID,52,VALID,0,
2014-11-17, 02:42:04,VALID,1007.35,VALID,0,INVALID,137.927,VALID,0,VALID,24.0076,VALID,52,VALID,0,
2014-11-17, 02:43:04,VALID,1007.34,VALID,0,INVALID,137.973,VALID,0,VALID,23.9863,VALID,52,VALID,0,
2014-11-17, 02:44:04,VALID,1007.34,VALID,0,INVALID,138.003,VALID,0,VALID,23.9863,VALID,52,VALID,0,
2014-11-17, 02:45:04,VALID,1007.34,VALID,0,INVALID,138.026,VALID,0,VALID,23.9863,VALID,52,VALID,0,
2014-11-17, 02:46:04,VALID,1007.31,VALID,0,INVALID,138.057,VALID,0,VALID,23.9863,VALID,52,VALID,0,
2014-11-17, 02:47:04,VALID,1007.33,VALID,0,INVALID,138.095,VALID,0,VALID,23.9863,VALID,52,VALID,0,
2014-11-17, 02:48:04,VALID,1007.33,VALID,0,INVALID,138.08,VALID,0,VALID,23.9863,VALID,52,VALID,0,
2014-11-17, 02:49:04,VALID,1007.38,VALID,0,INVALID,138.087,VALID,0,VALID,23.9863,VALID,52,VALID,0,
2014-11-17, 02:50:04,VALID,1007.37,VALID,0,INVALID,138.102,VALID,0,VALID,24.0076,VALID,52,VALID,0,
2014-11-17, 02:51:04,VALID,1007.42,VALID,0,INVALID,138.163,VALID,0,VALID,23.9473,VALID,52,VALID,0,
2014-11-17, 02:52:04,VALID,1007.4,VALID,0,INVALID,138.24,VALID,0,VALID,23.9473,VALID,52,VALID,0,
2014-11-17, 02:53:04,VALID,1007.43,VALID,0,INVALID,138.331,VALID,0,VALID,23.9668,VALID,52,VALID,0,
2014-11-17, 02:54:04,VALID,1007.48,VALID,0,INVALID,138.316,VALID,0,VALID,23.9881,VALID,52,VALID,0,
2014-11-17, 02:55:04,VALID,1007.45,VALID,0,INVALID,138.27,VALID,0,VALID,23.9863,VALID,52,VALID,0,
2014-11-17, 02:56:04,VALID,1007.48,VALID,0,INVALID,138.377,VALID,0,VALID,23.9668,VALID,52,VALID,0,
2014-11-17, 02:57:04,VALID,1007.49,VALID,0,INVALID,138.468,VALID,0,VALID,23.9668,VALID,52,VALID,0,
2014-11-17, 02:58:04,VALID,1007.5,VALID,0,INVALID,138.499,VALID,0,VALID,23.9863,VALID,52,VALID,0,
2014-11-17, 02:59:04,VALID,1007.49,VALID,0,INVALID,138.59,VALID,0,VALID,23.9863,VALID,52,VALID,0,
2014-11-17, 03:00:04,VALID,1007.5,VALID,0,INVALID,138.606,VALID,0,VALID,23.9863,VALID,52,VALID,0,
2014-11-17, 03:01:04,VALID,1007.48,VALID,0,INVALID,138.659,VALID,0,VALID,23.9668,VALID,52,VALID,0,
2014-11-17, 03:02:04,VALID,1007.52,VALID,0,INVALID,138.812,VALID,0,VALID,23.9473,VALID,52,VALID,0,
2014-11-17, 03:03:04,VALID,1007.53,VALID,0,INVALID,138.888,VALID,0,VALID,23.9084,VALID,52,VALID,0,
2014-11-17, 03:04:04,VALID,1007.54,VALID,0,INVALID,138.941,VALID,0,VALID,23.9084,VALID,52,VALID,0,
2014-11-17, 03:05:04,VALID,1007.53,VALID,0,INVALID,138.972,VALID,0,VALID,23.8889,VALID,52,VALID,0,
2014-11-17, 03:06:04,VALID,1007.56,VALID,0,INVALID,139.025,VALID,0,VALID,23.8694,VALID,52,VALID,0,
2014-11-17, 03:07:04,VALID,1007.59,VALID,0,INVALID,138.949,VALID,0,VALID,23.8889,VALID,52,VALID,0,
2014-11-17, 03:08:04,VALID,1007.6,VALID,0,INVALID,138.796,VALID,0,VALID,23.9297,VALID,52,VALID,0,
2014-11-17, 03:09:04,VALID,1007.61,VALID,0,INVALID,138.674,VALID,0,VALID,23.9084,VALID,52,VALID,0,
2014-11-17, 03:10:04,VALID,1007.59,VALID,0,INVALID,138.606,VALID,0,VALID,23.9084,VALID,52,VALID,0,
2014-11-17, 03:11:04,VALID,1007.6,VALID,0,INVALID,138.575,VALID,0,VALID,23.9084,VALID,52,VALID,0,
2014-11-17, 03:12:04,VALID,1007.62,VALID,0,INVALID,138.575,VALID,0,VALID,23.8889,VALID,52,VALID,0,
2014-11-17, 03:13:04,VALID,1007.63,VALID,0,INVALID,138.613,VALID,0,VALID,23.8694,VALID,52,VALID,0,
2014-11-17, 03:14:04,VALID,1007.65,VALID,0,INVALID,138.682,VALID,0,VALID,23.8481,VALID,52,VALID,0,
2014-11-17, 03:15:04,VALID,1007.7,VALID,0,INVALID,138.712,VALID,0,VALID,23.8481,VALID,52,VALID,0,
2014-11-17, 03:16:04,VALID,1007.69,VALID,0,INVALID,138.598,VALID,0,VALID,23.8676,VALID,52,VALID,0,
2014-11-17, 03:17:04,VALID,1007.68,VALID,0,INVALID,138.453,VALID,0,VALID,23.8889,VALID,52,VALID,0,
2014-11-17, 03:18:04,VALID,1007.67,VALID,0,INVALID,138.385,VALID,0,VALID,23.9084,VALID,52,VALID,0,
2014-11-17, 03:19:04,VALID,1007.66,VALID,0,INVALID,138.278,VALID,0,VALID,23.8871,VALID,52,VALID,0,
2014-11-17, 03:20:04,VALID,1007.7,VALID,0,INVALID,138.392,VALID,0,VALID,23.8889,VALID,52,VALID,0,
2014-11-17, 03:21:04,VALID,1007.74,VALID,0,INVALID,138.514,VALID,0,VALID,23.8694,VALID,52,VALID,0,
2014-11-17, 03:22:04,VALID,1007.79,VALID,0,INVALID,138.56,VALID,0,VALID,23.8499,VALID,52,VALID,0,
2014-11-17, 03:23:04,VALID,1007.81,VALID,0,INVALID,138.583,VALID,0,VALID,23.8499,VALID,52,VALID,0,
2014-11-17, 03:24:04,VALID,1007.83,VALID,0,INVALID,138.484,VALID,0,VALID,23.8499,VALID,52,VALID,0,
2014-11-17, 03:25:04,VALID,1007.81,VALID,0,INVALID,138.346,VALID,0,VALID,23.8889,VALID,52,VALID,0,
2014-11-17, 03:26:04,VALID,1007.81,VALID,0,INVALID,138.194,VALID,0,VALID,23.8676,VALID,52,VALID,0,
2014-11-17, 03:27:04,VALID,1007.81,VALID,0,INVALID,138.163,VALID,0,VALID,23.8694,VALID,52,VALID,0,
2014-11-17, 03:28:04,VALID,1007.85,VALID,0,INVALID,138.179,VALID,0,VALID,23.8694,VALID,52,VALID,0,
2014-11-17, 03:29:04,VALID,1007.86,VALID,0,INVALID,138.179,VALID,0.112112,VALID,23.8499,VALID,52,VALID,0,
2014-11-17, 03:30:04,VALID,1007.86,VALID,0,INVALID,138.171,VALID,0,VALID,23.8286,VALID,52,VALID,0,
2014-11-17, 03:31:04,VALID,1007.86,VALID,0,INVALID,138.24,VALID,0,VALID,23.8304,VALID,52,VALID,0,
2014-11-17, 03:32:04,VALID,1007.87,VALID,0,INVALID,138.293,VALID,0,VALID,23.8304,VALID,52,VALID,0,
2014-11-17, 03:33:04,VALID,1007.85,VALID,0,INVALID,138.285,VALID,0,VALID,23.8304,VALID,52,VALID,0,
2014-11-17, 03:34:04,VALID,1007.87,VALID,0,INVALID,138.095,VALID,0,VALID,23.8499,VALID,52,VALID,0,
2014-11-17, 03:35:04,VALID,1007.84,VALID,0,INVALID,137.881,VALID,0,VALID,23.8694,VALID,52,VALID,0,
2014-11-17, 03:36:04,VALID,1007.83,VALID,0,INVALID,137.607,VALID,0,VALID,23.9084,VALID,52,VALID,0,
2014-11-17, 03:37:04,VALID,1007.83,VALID,0,INVALID,137.325,VALID,0,VALID,23.9278,VALID,52,VALID,0,
2014-11-17, 03:38:04,VALID,1007.89,VALID,0,INVALID,137.172,VALID,0,VALID,23.926,VALID,52,VALID,0,
2014-11-17, 03:39:04,VALID,1007.89,VALID,0,INVALID,137.035,VALID,0,VALID,23.9473,VALID,52,VALID,0,
2014-11-17, 03:40:04,VALID,1007.88,VALID,0,INVALID,136.997,VALID,0,VALID,23.9473,VALID,52,VALID,0,
2014-11-17, 03:41:04,VALID,1007.89,VALID,0,INVALID,136.928,VALID,0,VALID,23.9668,VALID,52,VALID,0,
2014-11-17, 03:42:04,VALID,1007.86,VALID,0,INVALID,136.768,VALID,0,VALID,23.9668,VALID,52,VALID,0,
2014-11-17, 03:43:04,VALID,1007.88,VALID,0,INVALID,136.684,VALID,0,VALID,23.965,VALID,52,VALID,0,
2014-11-17, 03:44:04,VALID,1007.89,VALID,0,INVALID,136.684,VALID,0,VALID,23.9845,VALID,52,VALID,0,
2014-11-17, 03:45:04,VALID,1007.87,VALID,0,INVALID,136.707,VALID,0.112112,VALID,23.9455,VALID,52,VALID,0,
2014-11-17, 03:46:04,VALID,1007.87,VALID,0,INVALID,136.753,VALID,0,VALID,23.9668,VALID,52,VALID,0,
2014-11-17, 03:47:04,VALID,1007.87,VALID,0,INVALID,136.806,VALID,0,VALID,23.9455,VALID,52,VALID,0,
2014-11-17, 03:48:04,VALID,1007.88,VALID,0,INVALID,136.89,VALID,0,VALID,23.9473,VALID,52,VALID,0,